Wetterdaten: Samstag, 14.03.2015
Datum Zeit Auen-Temp. A-Temp. 2 Luftfeuchte Luftfeuchte Luftdruck Regen Wind Richtung Richtung Taupunkt Windchill Windben
14.03.2015 00:00 -3,9 C -3,0 C 75 % 75 % 1020,5 hPa 0,0 l/m 0,0 km/h (0 Bft) SO 135 -6,8 C -5,6 C 0,0 km/h (0 Bft)
14.03.2015 00:05 -3,8 C -3,0 C 75 % 75 % 1020,5 hPa 0,0 l/m 0,2 km/h (0 Bft) SO 135 -6,8 C -5,4 C 1,8 km/h (1 Bft)
14.03.2015 00:10 -4,0 C -3,0 C 75 % 75 % 1020,5 hPa 0,0 l/m 0,3 km/h (0 Bft) O-NO 67 -6,8 C -5,2 C 0,0 km/h (0 Bft)
14.03.2015 00:15 -4,6 C -3,4 C 75 % 75 % 1020,5 hPa 0,0 l/m 0,2 km/h (0 Bft) O-NO 67 -7,2 C -5,6 C 0,0 km/h (0 Bft)
14.03.2015 00:20 -4,8 C -3,8 C 74 % 74 % 1020,5 hPa 0,0 l/m 0,0 km/h (0 Bft) O-NO 67 -7,7 C -6,1 C 0,0 km/h (0 Bft)
14.03.2015 00:25 -4,9 C -4,0 C 74 % 74 % 1020,5 hPa 0,0 l/m 0,0 km/h (0 Bft) O-NO 67 -7,9 C -6,3 C 0,0 km/h (0 Bft)
14.03.2015 00:30 -5,0 C -4,1 C 74 % 74 % 1020,6 hPa 0,0 l/m 0,0 km/h (0 Bft) O-NO 67 -8,0 C -6,6 C 0,0 km/h (0 Bft)
14.03.2015 00:35 -5,1 C -4,3 C 75 % 75 % 1020,6 hPa 0,0 l/m 0,0 km/h (0 Bft) O-NO 67 -8,0 C -6,7 C 0,0 km/h (0 Bft)
14.03.2015 00:40 -5,3 C -4,3 C 75 % 75 % 1020,6 hPa 0,0 l/m 0,0 km/h (0 Bft) O-NO 67 -8,0 C -6,8 C 0,0 km/h (0 Bft)
14.03.2015 00:45 -5,3 C -4,4 C 75 % 75 % 1020,6 hPa 0,0 l/m 0,0 km/h (0 Bft) S 180 -8,1 C -6,9 C 0,0 km/h (0 Bft)
14.03.2015 00:50 -5,4 C -4,4 C 75 % 75 % 1020,4 hPa 0,0 l/m 0,0 km/h (0 Bft) S-SO 157 -8,1 C -6,9 C 0,0 km/h (0 Bft)
14.03.2015 00:55 -5,6 C -4,7 C 75 % 75 % 1020,4 hPa 0,0 l/m 0,0 km/h (0 Bft) S-SO 157 -8,4 C -6,8 C 0,0 km/h (0 Bft)
14.03.2015 01:00 -5,5 C -4,7 C 75 % 75 % 1020,4 hPa 0,0 l/m 0,0 km/h (0 Bft) S 180 -8,4 C -6,8 C 0,0 km/h (0 Bft)
14.03.2015 01:05 -5,5 C -4,7 C 75 % 75 % 1020,4 hPa 0,0 l/m 0,0 km/h (0 Bft) S 180 -8,4 C -6,8 C 0,0 km/h (0 Bft)
14.03.2015 01:10 -4,9 C -4,3 C 76 % 76 % 1020,4 hPa 0,0 l/m 0,0 km/h (0 Bft) SO 135 -7,9 C -6,8 C 0,0 km/h (0 Bft)
14.03.2015 01:15 -4,6 C -4,1 C 76 % 76 % 1020,4 hPa 0,0 l/m 0,0 km/h (0 Bft) S 180 -7,7 C -6,4 C 0,0 km/h (0 Bft)
14.03.2015 01:20 -4,4 C -3,8 C 76 % 76 % 1020,4 hPa 0,0 l/m 0,0 km/h (0 Bft) S-SO 157 -7,4 C -6,0 C 0,0 km/h (0 Bft)
14.03.2015 01:25 -4,3 C -3,6 C 76 % 76 % 1020,4 hPa 0,0 l/m 0,0 km/h (0 Bft) SO 135 -7,2 C -5,9 C 0,0 km/h (0 Bft)
14.03.2015 01:30 -4,8 C -4,0 C 76 % 76 % 1020,3 hPa 0,0 l/m 0,0 km/h (0 Bft) S-SO 157 -7,6 C -5,9 C 0,0 km/h (0 Bft)
14.03.2015 01:35 -4,7 C -4,3 C 76 % 76 % 1020,3 hPa 0,0 l/m 0,0 km/h (0 Bft) O-NO 67 -7,9 C -5,9 C 0,0 km/h (0 Bft)
14.03.2015 01:40 -5,3 C -4,5 C 76 % 76 % 1020,3 hPa 0,0 l/m 0,0 km/h (0 Bft) O-NO 67 -8,1 C -6,3 C 0,0 km/h (0 Bft)
14.03.2015 01:45 -5,2 C -4,5 C 76 % 76 % 1020,3 hPa 0,0 l/m 0,0 km/h (0 Bft) SO 135 -8,1 C -6,4 C 0,0 km/h (0 Bft)
14.03.2015 01:50 -5,5 C -4,7 C 76 % 76 % 1020,2 hPa 0,0 l/m 0,0 km/h (0 Bft) O-NO 67 -8,3 C -6,7 C 0,0 km/h (0 Bft)
14.03.2015 01:55 -5,6 C -4,9 C 76 % 76 % 1020,2 hPa 0,0 l/m 0,0 km/h (0 Bft) SO 135 -8,5 C -6,8 C 0,0 km/h (0 Bft)
14.03.2015 02:00 -5,6 C -4,8 C 76 % 76 % 1020,2 hPa 0,0 l/m 0,0 km/h (0 Bft) S-SO 157 -8,4 C -7,0 C 0,0 km/h (0 Bft)
14.03.2015 02:05 -5,6 C -4,8 C 76 % 76 % 1020,2 hPa 0,0 l/m 0,0 km/h (0 Bft) S-SO 157 -8,4 C -7,0 C 0,0 km/h (0 Bft)
14.03.2015 02:10 -5,6 C -4,8 C 76 % 76 % 1020,2 hPa 0,0 l/m 0,0 km/h (0 Bft) NW 315 -8,4 C -7,1 C 0,0 km/h (0 Bft)
14.03.2015 02:15 -5,8 C -5,0 C 76 % 76 % 1020,2 hPa 0,0 l/m 0,0 km/h (0 Bft) NO 45 -8,6 C -7,2 C 0,0 km/h (0 Bft)
14.03.2015 02:20 -5,7 C -4,9 C 76 % 76 % 1020,2 hPa 0,0 l/m 0,0 km/h (0 Bft) NO 45 -8,5 C -7,2 C 0,0 km/h (0 Bft)
14.03.2015 02:25 -6,0 C -5,0 C 76 % 76 % 1020,2 hPa 0,0 l/m 0,0 km/h (0 Bft) NO 45 -8,6 C -7,1 C 0,0 km/h (0 Bft)
14.03.2015 02:30 -5,9 C -5,1 C 77 % 77 % 1020,0 hPa 0,0 l/m 0,0 km/h (0 Bft) NO 45 -8,5 C -7,4 C 0,0 km/h (0 Bft)
14.03.2015 02:35 -6,0 C -5,1 C 77 % 77 % 1020,0 hPa 0,0 l/m 0,0 km/h (0 Bft) NO 45 -8,5 C -7,4 C 0,0 km/h (0 Bft)
14.03.2015 02:40 -6,0 C -5,1 C 77 % 77 % 1020,0 hPa 0,0 l/m 0,0 km/h (0 Bft) N-NO 22 -8,5 C -7,4 C 0,0 km/h (0 Bft)
14.03.2015 02:45 -6,2 C -5,3 C 77 % 77 % 1020,0 hPa 0,0 l/m 0,0 km/h (0 Bft) N-NO 22 -8,7 C -7,5 C 0,0 km/h (0 Bft)
14.03.2015 02:50 -6,3 C -5,4 C 77 % 77 % 1020,1 hPa 0,0 l/m 0,0 km/h (0 Bft) N-NO 22 -8,8 C -7,6 C 0,0 km/h (0 Bft)
14.03.2015 02:55 -6,2 C -5,4 C 77 % 77 % 1020,1 hPa 0,0 l/m 0,0 km/h (0 Bft) N-NO 22 -8,8 C -7,5 C 0,0 km/h (0 Bft)
14.03.2015 03:00 -6,3 C -5,6 C 77 % 77 % 1020,1 hPa 0,0 l/m 0,0 km/h (0 Bft) W-NW 292 -9,0 C -7,5 C 0,0 km/h (0 Bft)
14.03.2015 03:05 -6,2 C -5,6 C 77 % 77 % 1020,1 hPa 0,0 l/m 0,0 km/h (0 Bft) W-NW 292 -9,0 C -7,6 C 0,0 km/h (0 Bft)
14.03.2015 03:10 -6,5 C -5,7 C 77 % 77 % 1019,9 hPa 0,0 l/m 0,0 km/h (0 Bft) W-NW 292 -9,1 C -7,6 C 0,0 km/h (0 Bft)
14.03.2015 03:15 -6,5 C -5,7 C 77 % 77 % 1019,9 hPa 0,0 l/m 0,0 km/h (0 Bft) W-NW 292 -9,1 C -7,6 C 0,0 km/h (0 Bft)
14.03.2015 03:20 -6,7 C -6,0 C 77 % 77 % 1019,9 hPa 0,0 l/m 0,0 km/h (0 Bft) W-NW 292 -9,4 C -7,7 C 0,0 km/h (0 Bft)
14.03.2015 03:25 -6,7 C -6,0 C 77 % 77 % 1019,9 hPa 0,0 l/m 0,0 km/h (0 Bft) W-NW 292 -9,4 C -7,9 C 0,0 km/h (0 Bft)
14.03.2015 03:30 -6,3 C -5,7 C 77 % 77 % 1020,0 hPa 0,0 l/m 0,0 km/h (0 Bft) W-NW 292 -9,1 C -7,9 C 0,0 km/h (0 Bft)
14.03.2015 03:35 -6,1 C -5,6 C 78 % 78 % 1020,0 hPa 0,0 l/m 0,0 km/h (0 Bft) O-SO 112 -8,8 C -7,8 C 0,0 km/h (0 Bft)
14.03.2015 03:40 -6,2 C -5,4 C 78 % 78 % 1020,0 hPa 0,0 l/m 0,0 km/h (0 Bft) O-SO 112 -8,6 C -7,7 C 0,0 km/h (0 Bft)
14.03.2015 03:45 -6,2 C -5,6 C 78 % 78 % 1020,0 hPa 0,0 l/m 0,0 km/h (0 Bft) S-SO 157 -8,8 C -7,7 C 0,0 km/h (0 Bft)
14.03.2015 03:50 -6,1 C -5,4 C 78 % 78 % 1020,1 hPa 0,0 l/m 0,0 km/h (0 Bft) S-SO 157 -8,6 C -7,6 C 0,0 km/h (0 Bft)
14.03.2015 03:55 -6,0 C -5,3 C 78 % 78 % 1020,1 hPa 0,0 l/m 0,0 km/h (0 Bft) SO 135 -8,5 C -7,6 C 0,0 km/h (0 Bft)
14.03.2015 04:00 -5,6 C -5,0 C 78 % 78 % 1020,1 hPa 0,0 l/m 0,0 km/h (0 Bft) O-SO 112 -8,2 C -7,2 C 0,0 km/h (0 Bft)
14.03.2015 04:05 -5,9 C -5,3 C 78 % 78 % 1020,1 hPa 0,0 l/m 0,0 km/h (0 Bft) NO 45 -8,5 C -7,1 C 0,0 km/h (0 Bft)
14.03.2015 04:10 -6,5 C -5,6 C 78 % 78 % 1019,9 hPa 0,0 l/m 0,0 km/h (0 Bft) NO 45 -8,8 C -7,6 C 0,0 km/h (0 Bft)
14.03.2015 04:15 -6,5 C -5,7 C 78 % 78 % 1019,9 hPa 0,0 l/m 0,0 km/h (0 Bft) S-SO 157 -8,9 C -7,8 C 0,0 km/h (0 Bft)
14.03.2015 04:20 -6,8 C -6,0 C 78 % 78 % 1019,9 hPa 0,0 l/m 0,0 km/h (0 Bft) S-SO 157 -9,2 C -8,0 C 0,0 km/h (0 Bft)
14.03.2015 04:25 -6,8 C -6,2 C 78 % 78 % 1019,9 hPa 0,0 l/m 0,0 km/h (0 Bft) S-SO 157 -9,4 C -8,2 C 0,0 km/h (0 Bft)
14.03.2015 04:30 -6,8 C -6,2 C 78 % 78 % 1019,8 hPa 0,0 l/m 0,0 km/h (0 Bft) W-SW 247 -9,4 C -8,2 C 0,0 km/h (0 Bft)
14.03.2015 04:35 -7,0 C -6,3 C 78 % 78 % 1019,8 hPa 0,0 l/m 0,0 km/h (0 Bft) W-SW 247 -9,5 C -8,2 C 0,0 km/h (0 Bft)
14.03.2015 04:40 -7,1 C -6,5 C 78 % 78 % 1019,8 hPa 0,0 l/m 0,0 km/h (0 Bft) W-SW 247 -9,7 C -8,4 C 0,0 km/h (0 Bft)
14.03.2015 04:45 -7,0 C -6,5 C 78 % 78 % 1019,8 hPa 0,0 l/m 0,0 km/h (0 Bft) W-SW 247 -9,7 C -8,4 C 0,0 km/h (0 Bft)
14.03.2015 04:50 -6,9 C -6,2 C 78 % 78 % 1020,3 hPa 0,0 l/m 0,0 km/h (0 Bft) W-SW 247 -9,4 C -8,4 C 0,0 km/h (0 Bft)
14.03.2015 04:55 -6,7 C -6,0 C 78 % 78 % 1020,3 hPa 0,0 l/m 0,0 km/h (0 Bft) W-SW 247 -9,2 C -8,2 C 0,0 km/h (0 Bft)
14.03.2015 05:00 -6,9 C -6,2 C 78 % 78 % 1020,3 hPa 0,0 l/m 0,0 km/h (0 Bft) W-SW 247 -9,4 C -8,1 C 0,0 km/h (0 Bft)
14.03.2015 05:05 -7,0 C -6,3 C 78 % 78 % 1020,3 hPa 0,0 l/m 0,0 km/h (0 Bft) W-SW 247 -9,5 C -8,1 C 0,0 km/h (0 Bft)
14.03.2015 05:10 -7,1 C -6,5 C 78 % 78 % 1020,4 hPa 0,0 l/m 0,0 km/h (0 Bft) W-SW 247 -9,7 C -8,3 C 0,0 km/h (0 Bft)
14.03.2015 05:15 -6,9 C -6,5 C 78 % 78 % 1020,4 hPa 0,0 l/m 0,0 km/h (0 Bft) W-SW 247 -9,7 C -8,2 C 0,0 km/h (0 Bft)
14.03.2015 05:20 -6,8 C -6,6 C 78 % 78 % 1020,4 hPa 0,0 l/m 0,0 km/h (0 Bft) W-SW 247 -9,8 C -8,0 C 0,0 km/h (0 Bft)
14.03.2015 05:25 -6,6 C -6,3 C 78 % 78 % 1020,4 hPa 0,0 l/m 0,0 km/h (0 Bft) SO 135 -9,5 C -7,7 C 0,0 km/h (0 Bft)
14.03.2015 05:30 -6,0 C -6,0 C 79 % 79 % 1020,6 hPa 0,0 l/m 0,0 km/h (0 Bft) N-NO 22 -9,0 C -6,9 C 0,0 km/h (0 Bft)
14.03.2015 05:35 -6,0 C -6,0 C 79 % 79 % 1020,6 hPa 0,0 l/m 0,0 km/h (0 Bft) N-NO 22 -9,0 C -6,6 C 0,0 km/h (0 Bft)
14.03.2015 05:40 -5,9 C -5,9 C 79 % 79 % 1020,6 hPa 0,0 l/m 0,0 km/h (0 Bft) NO 45 -8,9 C -6,3 C 0,0 km/h (0 Bft)
14.03.2015 05:45 -5,7 C -5,7 C 79 % 79 % 1020,6 hPa 0,0 l/m 0,0 km/h (0 Bft) O-NO 67 -8,7 C -6,1 C 0,0 km/h (0 Bft)
14.03.2015 05:50 -5,3 C -5,3 C 79 % 79 % 1020,6 hPa 0,0 l/m 0,0 km/h (0 Bft) W-NW 292 -8,4 C -5,7 C 0,0 km/h (0 Bft)
14.03.2015 05:55 -5,2 C -5,2 C 79 % 79 % 1020,6 hPa 0,0 l/m 0,0 km/h (0 Bft) S-SW 202 -8,3 C -5,4 C 0,0 km/h (0 Bft)
14.03.2015 06:00 -4,5 C -4,5 C 80 % 80 % 1020,6 hPa 0,0 l/m 0,3 km/h (0 Bft) O-NO 67 -7,4 C -5,0 C 2,4 km/h (1 Bft)
14.03.2015 06:05 -4,1 C -4,1 C 80 % 80 % 1020,6 hPa 0,0 l/m 0,3 km/h (0 Bft) SO 135 -7,0 C -4,7 C 0,0 km/h (0 Bft)
14.03.2015 06:10 -4,3 C -4,2 C 80 % 80 % 1020,7 hPa 0,0 l/m 0,2 km/h (0 Bft) NO 45 -7,1 C -4,6 C 0,0 km/h (0 Bft)
14.03.2015 06:15 -4,2 C -4,2 C 80 % 80 % 1020,7 hPa 0,0 l/m 0,0 km/h (0 Bft) S 180 -7,1 C -4,6 C 0,0 km/h (0 Bft)
14.03.2015 06:20 -4,0 C -4,0 C 80 % 80 % 1020,7 hPa 0,0 l/m 0,3 km/h (0 Bft) S 180 -6,9 C -4,4 C 1,6 km/h (1 Bft)
14.03.2015 06:25 -3,9 C -3,9 C 80 % 80 % 1020,7 hPa 0,0 l/m 0,8 km/h (0 Bft) SW 225 -6,8 C -4,4 C 3,9 km/h (1 Bft)
14.03.2015 06:30 -4,1 C -3,9 C 81 % 81 % 1020,5 hPa 0,0 l/m 1,6 km/h (1 Bft) W-SW 247 -6,7 C -4,5 C 4,0 km/h (1 Bft)
14.03.2015 06:35 -4,1 C -3,9 C 81 % 81 % 1020,5 hPa 0,0 l/m 1,8 km/h (1 Bft) S 180 -6,7 C -4,8 C 1,6 km/h (1 Bft)
14.03.2015 06:40 -4,3 C -4,2 C 81 % 81 % 1020,5 hPa 0,0 l/m 0,6 km/h (0 Bft) W 270 -7,0 C -5,0 C 0,0 km/h (0 Bft)
14.03.2015 06:45 -4,7 C -4,3 C 81 % 81 % 1020,5 hPa 0,0 l/m 0,2 km/h (0 Bft) N-NO 22 -7,1 C -5,4 C 0,0 km/h (0 Bft)
14.03.2015 06:50 -4,9 C -4,5 C 80 % 80 % 1020,6 hPa 0,0 l/m 0,0 km/h (0 Bft) N-NO 22 -7,4 C -5,8 C 0,0 km/h (0 Bft)
14.03.2015 06:55 -4,7 C -4,5 C 80 % 80 % 1020,6 hPa 0,0 l/m 0,0 km/h (0 Bft) N-NW 337 -7,4 C -5,9 C 0,0 km/h (0 Bft)
14.03.2015 07:00 -4,9 C -4,8 C 80 % 80 % 1020,6 hPa 0,0 l/m 0,2 km/h (0 Bft) NO 45 -7,7 C -6,0 C 2,1 km/h (1 Bft)
14.03.2015 07:05 -4,8 C -4,8 C 80 % 80 % 1020,6 hPa 0,0 l/m 0,2 km/h (0 Bft) N-NW 337 -7,7 C -5,9 C 0,0 km/h (0 Bft)
14.03.2015 07:10 -4,8 C -4,8 C 80 % 80 % 1020,8 hPa 0,0 l/m 0,2 km/h (0 Bft) NW 315 -7,7 C -5,9 C 0,0 km/h (0 Bft)
14.03.2015 07:15 -4,7 C -4,7 C 81 % 81 % 1020,8 hPa 0,0 l/m 0,0 km/h (0 Bft) S 180 -7,4 C -5,8 C 0,0 km/h (0 Bft)
14.03.2015 07:20 -4,5 C -4,5 C 81 % 81 % 1020,8 hPa 0,0 l/m 0,0 km/h (0 Bft) S 180 -7,3 C -5,2 C 0,0 km/h (0 Bft)
14.03.2015 07:25 -4,4 C -4,4 C 81 % 81 % 1020,8 hPa 0,0 l/m 0,2 km/h (0 Bft) W 270 -7,2 C -4,9 C 0,0 km/h (0 Bft)
14.03.2015 07:30 -4,3 C -4,3 C 81 % 81 % 1021,0 hPa 0,0 l/m 0,2 km/h (0 Bft) SO 135 -7,1 C -4,5 C 0,0 km/h (0 Bft)
14.03.2015 07:35 -4,3 C -4,3 C 81 % 81 % 1021,0 hPa 0,0 l/m 0,0 km/h (0 Bft) O-SO 112 -7,1 C -4,3 C 0,0 km/h (0 Bft)
14.03.2015 07:40 -4,3 C -4,3 C 81 % 81 % 1021,0 hPa 0,0 l/m 0,2 km/h (0 Bft) O 90 -7,1 C -4,2 C 0,0 km/h (0 Bft)
14.03.2015 07:45 -4,2 C -4,2 C 81 % 81 % 1021,0 hPa 0,0 l/m 0,2 km/h (0 Bft) NW 315 -7,0 C -4,0 C 0,0 km/h (0 Bft)
14.03.2015 07:50 -4,0 C -4,0 C 81 % 81 % 1020,8 hPa 0,0 l/m 0,0 km/h (0 Bft) W-SW 247 -6,8 C -3,7 C 0,0 km/h (0 Bft)
14.03.2015 07:55 -4,0 C -4,0 C 81 % 81 % 1020,8 hPa 0,0 l/m 0,0 km/h (0 Bft) N-NO 22 -6,8 C -3,6 C 0,0 km/h (0 Bft)
14.03.2015 08:00 -4,0 C -4,0 C 81 % 81 % 1020,8 hPa 0,0 l/m 0,0 km/h (0 Bft) W-NW 292 -6,8 C -3,5 C 0,0 km/h (0 Bft)
14.03.2015 08:05 -4,0 C -4,0 C 82 % 82 % 1020,8 hPa 0,0 l/m 0,2 km/h (0 Bft) W 270 -6,6 C -3,4 C 0,0 km/h (0 Bft)
14.03.2015 08:10 -4,0 C -4,0 C 82 % 82 % 1020,8 hPa 0,0 l/m 0,5 km/h (0 Bft) W 270 -6,6 C -3,2 C 2,3 km/h (1 Bft)
14.03.2015 08:15 -4,0 C -4,0 C 82 % 82 % 1020,8 hPa 0,0 l/m 0,5 km/h (0 Bft) W-SW 247 -6,6 C -3,2 C 0,0 km/h (0 Bft)
14.03.2015 08:20 -4,0 C -4,0 C 82 % 82 % 1020,8 hPa 0,0 l/m 0,6 km/h (0 Bft) S 180 -6,6 C -3,1 C 0,0 km/h (0 Bft)
14.03.2015 08:25 -3,9 C -3,9 C 82 % 82 % 1020,8 hPa 0,0 l/m 0,2 km/h (0 Bft) W 270 -6,5 C -2,8 C 0,0 km/h (0 Bft)
14.03.2015 08:30 -3,8 C -3,8 C 82 % 82 % 1020,8 hPa 0,0 l/m 0,2 km/h (0 Bft) N-NO 22 -6,4 C -2,5 C 0,0 km/h (0 Bft)
14.03.2015 08:35 -3,8 C -3,8 C 82 % 82 % 1020,8 hPa 0,0 l/m 0,2 km/h (0 Bft) SO 135 -6,4 C -2,5 C 0,0 km/h (0 Bft)
14.03.2015 08:40 -3,5 C -3,5 C 82 % 82 % 1020,8 hPa 0,0 l/m 0,2 km/h (0 Bft) NW 315 -6,1 C -2,2 C 2,3 km/h (1 Bft)
14.03.2015 08:45 -3,5 C -3,5 C 82 % 82 % 1020,8 hPa 0,0 l/m 0,6 km/h (0 Bft) NO 45 -6,1 C -2,3 C 0,0 km/h (0 Bft)
14.03.2015 08:50 -3,5 C -3,5 C 82 % 82 % 1020,9 hPa 0,0 l/m 0,6 km/h (0 Bft) S-SO 157 -6,1 C -2,0 C 0,0 km/h (0 Bft)
14.03.2015 08:55 -3,5 C -3,5 C 82 % 82 % 1020,9 hPa 0,0 l/m 0,2 km/h (0 Bft) S-SO 157 -6,1 C -1,9 C 0,0 km/h (0 Bft)
14.03.2015 09:00 -3,3 C -3,3 C 82 % 82 % 1020,9 hPa 0,0 l/m 0,2 km/h (0 Bft) SW 225 -5,9 C -1,5 C 0,0 km/h (0 Bft)
14.03.2015 09:05 -3,0 C -3,0 C 83 % 83 % 1020,9 hPa 0,0 l/m 0,2 km/h (0 Bft) NO 45 -5,5 C -1,1 C 2,9 km/h (1 Bft)
14.03.2015 09:10 -2,9 C -2,9 C 83 % 83 % 1021,1 hPa 0,0 l/m 0,3 km/h (0 Bft) O-NO 67 -5,4 C -0,9 C 1,8 km/h (1 Bft)
14.03.2015 09:15 -2,9 C -2,9 C 83 % 83 % 1021,1 hPa 0,0 l/m 0,6 km/h (0 Bft) O-NO 67 -5,4 C -1,1 C 2,7 km/h (1 Bft)
14.03.2015 09:20 -2,9 C -2,9 C 83 % 83 % 1021,1 hPa 0,0 l/m 0,8 km/h (0 Bft) NO 45 -5,4 C -1,2 C 2,1 km/h (1 Bft)
14.03.2015 09:25 -2,8 C -2,8 C 83 % 83 % 1021,1 hPa 0,0 l/m 0,8 km/h (0 Bft) N-NO 22 -5,3 C -1,3 C 3,1 km/h (1 Bft)
14.03.2015 09:30 -2,8 C -2,8 C 83 % 83 % 1021,2 hPa 0,0 l/m 2,3 km/h (1 Bft) NO 45 -5,3 C -1,3 C 5,0 km/h (1 Bft)
14.03.2015 09:35 -2,7 C -2,7 C 83 % 83 % 1021,2 hPa 0,0 l/m 3,2 km/h (1 Bft) N-NO 22 -5,2 C -2,1 C 4,3 km/h (1 Bft)
14.03.2015 09:40 -2,7 C -2,7 C 83 % 83 % 1021,2 hPa 0,0 l/m 3,2 km/h (1 Bft) O-NO 67 -5,2 C -2,4 C 2,4 km/h (1 Bft)
14.03.2015 09:45 -2,5 C -2,5 C 83 % 83 % 1021,2 hPa 0,0 l/m 2,1 km/h (1 Bft) O-SO 112 -5,0 C -1,4 C 0,0 km/h (0 Bft)
14.03.2015 09:50 -2,4 C -2,4 C 83 % 83 % 1021,4 hPa 0,0 l/m 1,6 km/h (1 Bft) NO 45 -4,9 C -1,1 C 5,1 km/h (1 Bft)
14.03.2015 09:55 -2,4 C -2,4 C 83 % 83 % 1021,4 hPa 0,0 l/m 1,6 km/h (1 Bft) SW 225 -4,9 C -1,0 C 0,0 km/h (0 Bft)
14.03.2015 10:00 -2,0 C -2,0 C 83 % 83 % 1021,4 hPa 0,0 l/m 0,6 km/h (0 Bft) NO 45 -4,5 C -0,5 C 0,0 km/h (0 Bft)
14.03.2015 10:05 -2,0 C -2,0 C 83 % 83 % 1021,4 hPa 0,0 l/m 0,2 km/h (0 Bft) SW 225 -4,5 C -0,4 C 0,0 km/h (0 Bft)
14.03.2015 10:10 -1,7 C -1,7 C 83 % 83 % 1021,3 hPa 0,0 l/m 0,2 km/h (0 Bft) W-SW 247 -4,2 C 0,3 C 0,0 km/h (0 Bft)
14.03.2015 10:15 -1,4 C -1,4 C 83 % 83 % 1021,3 hPa 0,0 l/m 0,2 km/h (0 Bft) N-NW 337 -3,9 C 0,7 C 0,0 km/h (0 Bft)
14.03.2015 10:20 -1,7 C -1,7 C 83 % 83 % 1021,3 hPa 0,0 l/m 1,9 km/h (1 Bft) O-NO 67 -4,2 C 0,9 C 7,2 km/h (2 Bft)
14.03.2015 10:25 -1,7 C -1,7 C 83 % 83 % 1021,3 hPa 0,0 l/m 3,1 km/h (1 Bft) NO 45 -4,2 C 0,6 C 3,7 km/h (1 Bft)
14.03.2015 10:30 -1,7 C -1,7 C 82 % 82 % 1021,4 hPa 0,0 l/m 2,7 km/h (1 Bft) N-NO 22 -4,4 C 1,1 C 0,0 km/h (0 Bft)
14.03.2015 10:35 -1,6 C -1,6 C 82 % 82 % 1021,4 hPa 0,0 l/m 2,3 km/h (1 Bft) O-NO 67 -4,3 C 1,7 C 0,0 km/h (0 Bft)
14.03.2015 10:40 -1,4 C -1,4 C 82 % 82 % 1021,4 hPa 0,0 l/m 1,4 km/h (1 Bft) O-NO 67 -4,1 C 2,4 C 3,1 km/h (1 Bft)
14.03.2015 10:45 -1,3 C -1,3 C 82 % 82 % 1021,4 hPa 0,0 l/m 1,9 km/h (1 Bft) O-NO 67 -4,0 C 2,8 C 3,9 km/h (1 Bft)
14.03.2015 10:50 -1,3 C -1,3 C 82 % 82 % 1021,5 hPa 0,0 l/m 2,7 km/h (1 Bft) S 180 -4,0 C 3,1 C 2,1 km/h (1 Bft)
14.03.2015 10:55 -0,9 C -0,9 C 82 % 82 % 1021,5 hPa 0,0 l/m 2,4 km/h (1 Bft) O-NO 67 -3,6 C 3,9 C 5,5 km/h (1 Bft)
14.03.2015 11:00 -0,9 C -0,9 C 81 % 81 % 1021,5 hPa 0,0 l/m 2,3 km/h (1 Bft) O-NO 67 -3,7 C 4,1 C 2,7 km/h (1 Bft)
14.03.2015 11:05 -0,9 C -0,9 C 81 % 81 % 1021,5 hPa 0,0 l/m 3,1 km/h (1 Bft) O 90 -3,7 C 4,0 C 3,4 km/h (1 Bft)
14.03.2015 11:10 -0,5 C -0,5 C 81 % 81 % 1021,4 hPa 0,0 l/m 1,9 km/h (1 Bft) O-NO 67 -3,3 C 4,9 C 3,1 km/h (1 Bft)
14.03.2015 11:15 -0,6 C -0,6 C 80 % 80 % 1021,4 hPa 0,0 l/m 1,1 km/h (1 Bft) O-SO 112 -3,6 C 5,4 C 3,7 km/h (1 Bft)
14.03.2015 11:20 -0,1 C -0,1 C 80 % 80 % 1021,4 hPa 0,0 l/m 1,0 km/h (0 Bft) O-SO 112 -3,1 C 6,4 C 0,0 km/h (0 Bft)
14.03.2015 11:25 0,5 C 0,5 C 80 % 80 % 1021,4 hPa 0,0 l/m 0,8 km/h (0 Bft) NW 315 -2,5 C 8,4 C 2,7 km/h (1 Bft)
14.03.2015 11:30 0,5 C 0,5 C 79 % 79 % 1021,8 hPa 0,0 l/m 1,9 km/h (1 Bft) N-NO 22 -2,7 C 9,6 C 3,9 km/h (1 Bft)
14.03.2015 11:35 0,6 C 0,6 C 79 % 79 % 1021,8 hPa 0,0 l/m 1,9 km/h (1 Bft) NO 45 -2,6 C 10,0 C 0,0 km/h (0 Bft)
14.03.2015 11:40 0,8 C 0,8 C 78 % 78 % 1021,8 hPa 0,0 l/m 1,8 km/h (1 Bft) NO 45 -2,6 C 10,4 C 3,4 km/h (1 Bft)
14.03.2015 11:45 0,8 C 0,8 C 78 % 78 % 1021,8 hPa 0,0 l/m 2,7 km/h (1 Bft) O-NO 67 -2,6 C 10,0 C 3,5 km/h (1 Bft)
14.03.2015 11:50 0,9 C 0,9 C 77 % 77 % 1022,4 hPa 0,0 l/m 2,7 km/h (1 Bft) N-NO 22 -2,7 C 10,0 C 2,9 km/h (1 Bft)
14.03.2015 11:55 1,1 C 1,1 C 77 % 77 % 1022,4 hPa 0,0 l/m 2,9 km/h (1 Bft) NO 45 -2,5 C 10,1 C 4,0 km/h (1 Bft)
14.03.2015 12:00 1,5 C 1,5 C 76 % 76 % 1022,4 hPa 0,0 l/m 3,2 km/h (1 Bft) NO 45 -2,3 C 10,1 C 6,3 km/h (2 Bft)
14.03.2015 12:05 1,5 C 1,5 C 76 % 76 % 1022,4 hPa 0,0 l/m 3,5 km/h (1 Bft) NO 45 -2,3 C 9,8 C 4,8 km/h (1 Bft)
14.03.2015 12:10 1,7 C 1,7 C 75 % 75 % 1022,8 hPa 0,0 l/m 3,9 km/h (1 Bft) NO 45 -2,2 C 9,9 C 4,3 km/h (1 Bft)
14.03.2015 12:15 1,7 C 1,7 C 75 % 75 % 1022,8 hPa 0,0 l/m 3,5 km/h (1 Bft) W 270 -2,2 C 10,4 C 5,5 km/h (1 Bft)
14.03.2015 12:20 1,7 C 1,7 C 75 % 75 % 1022,8 hPa 0,0 l/m 3,7 km/h (1 Bft) N 360 -2,2 C 10,2 C 7,4 km/h (2 Bft)
14.03.2015 12:25 1,6 C 1,6 C 74 % 74 % 1022,8 hPa 0,0 l/m 4,0 km/h (1 Bft) NO 45 -2,5 C 9,9 C 4,8 km/h (1 Bft)
14.03.2015 12:30 2,0 C 2,0 C 74 % 74 % 1022,9 hPa 0,0 l/m 2,9 km/h (1 Bft) N-NO 22 -2,1 C 10,7 C 6,6 km/h (2 Bft)
14.03.2015 12:35 1,9 C 1,9 C 73 % 73 % 1022,9 hPa 0,0 l/m 3,1 km/h (1 Bft) NO 45 -2,4 C 10,7 C 5,6 km/h (1 Bft)
14.03.2015 12:40 2,2 C 2,2 C 73 % 73 % 1022,9 hPa 0,0 l/m 3,9 km/h (1 Bft) NW 315 -2,1 C 10,4 C 7,7 km/h (2 Bft)
14.03.2015 12:45 2,0 C 2,0 C 72 % 72 % 1022,9 hPa 0,0 l/m 4,0 km/h (1 Bft) N-NO 22 -2,5 C 9,5 C 3,2 km/h (1 Bft)
14.03.2015 12:50 1,9 C 1,9 C 72 % 72 % 1023,0 hPa 0,0 l/m 4,3 km/h (1 Bft) NO 45 -2,6 C 9,2 C 8,9 km/h (2 Bft)
14.03.2015 12:55 1,8 C 1,8 C 72 % 72 % 1023,0 hPa 0,0 l/m 4,3 km/h (1 Bft) NO 45 -2,7 C 8,9 C 5,1 km/h (1 Bft)
14.03.2015 13:00 1,7 C 1,7 C 72 % 72 % 1023,0 hPa 0,0 l/m 4,5 km/h (1 Bft) N 360 -2,8 C 7,3 C 5,3 km/h (1 Bft)
14.03.2015 13:05 1,7 C 1,7 C 72 % 72 % 1023,0 hPa 0,0 l/m 4,0 km/h (1 Bft) NO 45 -2,8 C 6,8 C 5,1 km/h (1 Bft)
14.03.2015 13:10 2,1 C 2,1 C 72 % 72 % 1023,0 hPa 0,0 l/m 4,3 km/h (1 Bft) N-NW 337 -2,4 C 6,2 C 9,0 km/h (2 Bft)
14.03.2015 13:15 2,2 C 2,2 C 71 % 71 % 1023,0 hPa 0,0 l/m 4,8 km/h (1 Bft) NO 45 -2,5 C 5,7 C 6,0 km/h (2 Bft)
14.03.2015 13:20 2,4 C 2,4 C 71 % 71 % 1023,0 hPa 0,0 l/m 3,7 km/h (1 Bft) N 360 -2,3 C 6,2 C 4,2 km/h (1 Bft)
14.03.2015 13:25 2,6 C 2,6 C 71 % 71 % 1023,0 hPa 0,0 l/m 3,4 km/h (1 Bft) NO 45 -2,1 C 6,7 C 2,6 km/h (1 Bft)
14.03.2015 13:30 2,8 C 2,8 C 69 % 69 % 1022,7 hPa 0,0 l/m 4,0 km/h (1 Bft) O-NO 67 -2,3 C 6,9 C 6,0 km/h (2 Bft)
14.03.2015 13:35 2,8 C 2,8 C 69 % 69 % 1022,7 hPa 0,0 l/m 4,2 km/h (1 Bft) NO 45 -2,3 C 7,3 C 5,1 km/h (1 Bft)
14.03.2015 13:40 2,9 C 2,9 C 69 % 69 % 1022,7 hPa 0,0 l/m 4,7 km/h (1 Bft) NO 45 -2,2 C 7,9 C 9,8 km/h (2 Bft)
14.03.2015 13:45 3,1 C 3,1 C 68 % 68 % 1022,7 hPa 0,0 l/m 5,0 km/h (1 Bft) O-NO 67 -2,2 C 8,1 C 6,9 km/h (2 Bft)
14.03.2015 13:50 3,3 C 3,3 C 67 % 67 % 1022,4 hPa 0,0 l/m 5,5 km/h (1 Bft) O-NO 67 -2,2 C 8,2 C 10,8 km/h (2 Bft)
14.03.2015 13:55 3,4 C 3,4 C 67 % 67 % 1022,4 hPa 0,0 l/m 4,7 km/h (1 Bft) NO 45 -2,1 C 9,0 C 3,9 km/h (1 Bft)
14.03.2015 14:00 3,7 C 3,7 C 66 % 66 % 1022,4 hPa 0,0 l/m 3,1 km/h (1 Bft) N-NO 22 -2,0 C 10,3 C 7,7 km/h (2 Bft)
14.03.2015 14:05 3,7 C 3,7 C 66 % 66 % 1022,4 hPa 0,0 l/m 3,1 km/h (1 Bft) NO 45 -2,0 C 10,5 C 6,3 km/h (2 Bft)
14.03.2015 14:10 3,7 C 3,7 C 66 % 66 % 1023,6 hPa 0,0 l/m 3,4 km/h (1 Bft) N-NO 22 -2,0 C 10,7 C 6,9 km/h (2 Bft)
14.03.2015 14:15 3,8 C 3,8 C 66 % 66 % 1023,6 hPa 0,0 l/m 2,7 km/h (1 Bft) O 90 -2,0 C 10,9 C 6,4 km/h (2 Bft)
14.03.2015 14:20 4,0 C 4,0 C 65 % 65 % 1023,6 hPa 0,0 l/m 3,1 km/h (1 Bft) N-NO 22 -2,0 C 10,9 C 8,7 km/h (2 Bft)
14.03.2015 14:25 3,8 C 3,8 C 65 % 65 % 1023,6 hPa 0,0 l/m 4,2 km/h (1 Bft) N-NO 22 -2,2 C 10,6 C 6,8 km/h (2 Bft)
14.03.2015 14:30 4,0 C 4,0 C 65 % 65 % 1022,8 hPa 0,0 l/m 3,9 km/h (1 Bft) N-NO 22 -2,0 C 10,4 C 1,9 km/h (1 Bft)
14.03.2015 14:35 4,0 C 4,0 C 65 % 65 % 1022,8 hPa 0,0 l/m 2,9 km/h (1 Bft) O-NO 67 -2,0 C 10,6 C 0,0 km/h (0 Bft)
14.03.2015 14:40 4,2 C 4,2 C 65 % 65 % 1022,8 hPa 0,0 l/m 2,4 km/h (1 Bft) N-NO 22 -1,8 C 11,1 C 3,4 km/h (1 Bft)
14.03.2015 14:45 4,3 C 4,3 C 64 % 64 % 1022,8 hPa 0,0 l/m 3,4 km/h (1 Bft) N-NO 22 -1,9 C 10,7 C 5,3 km/h (1 Bft)
14.03.2015 14:50 4,4 C 4,4 C 64 % 64 % 1022,2 hPa 0,0 l/m 3,7 km/h (1 Bft) N-NO 22 -1,8 C 10,6 C 6,9 km/h (2 Bft)
14.03.2015 14:55 4,4 C 4,4 C 64 % 64 % 1022,2 hPa 0,0 l/m 3,1 km/h (1 Bft) NO 45 -1,8 C 10,7 C 2,9 km/h (1 Bft)
14.03.2015 15:00 4,6 C 4,6 C 64 % 64 % 1022,2 hPa 0,0 l/m 2,6 km/h (1 Bft) N-NO 22 -1,6 C 10,9 C 2,7 km/h (1 Bft)
14.03.2015 15:05 4,6 C 4,6 C 63 % 63 % 1022,2 hPa 0,0 l/m 2,9 km/h (1 Bft) O-NO 67 -1,8 C 10,9 C 3,2 km/h (1 Bft)
14.03.2015 15:10 4,6 C 4,6 C 63 % 63 % 1021,7 hPa 0,0 l/m 3,7 km/h (1 Bft) SW 225 -1,8 C 10,6 C 2,9 km/h (1 Bft)
14.03.2015 15:15 4,7 C 4,7 C 63 % 63 % 1021,7 hPa 0,0 l/m 2,9 km/h (1 Bft) N-NO 22 -1,7 C 10,6 C 2,6 km/h (1 Bft)
14.03.2015 15:20 4,8 C 4,8 C 62 % 62 % 1021,7 hPa 0,0 l/m 3,1 km/h (1 Bft) O-SO 112 -1,9 C 10,6 C 3,2 km/h (1 Bft)
14.03.2015 15:25 4,8 C 4,8 C 62 % 62 % 1021,7 hPa 0,0 l/m 2,9 km/h (1 Bft) O-SO 112 -1,9 C 10,6 C 3,4 km/h (1 Bft)
14.03.2015 15:30 4,8 C 4,8 C 62 % 62 % 1021,1 hPa 0,0 l/m 2,3 km/h (1 Bft) O-NO 67 -1,9 C 10,9 C 1,6 km/h (1 Bft)
14.03.2015 15:35 4,8 C 4,8 C 62 % 62 % 1021,1 hPa 0,0 l/m 2,4 km/h (1 Bft) N-NO 22 -1,9 C 10,9 C 3,7 km/h (1 Bft)
14.03.2015 15:40 4,8 C 4,8 C 62 % 62 % 1021,1 hPa 0,0 l/m 2,3 km/h (1 Bft) N-NO 22 -1,9 C 10,9 C 3,7 km/h (1 Bft)
14.03.2015 15:45 4,8 C 4,8 C 62 % 62 % 1021,1 hPa 0,0 l/m 2,4 km/h (1 Bft) N-NO 22 -1,9 C 10,9 C 8,0 km/h (2 Bft)
14.03.2015 15:50 4,8 C 4,8 C 62 % 62 % 1020,9 hPa 0,0 l/m 3,2 km/h (1 Bft) O-NO 67 -1,9 C 10,2 C 11,3 km/h (2 Bft)
14.03.2015 15:55 4,8 C 4,8 C 62 % 62 % 1020,9 hPa 0,0 l/m 3,5 km/h (1 Bft) N 360 -1,9 C 9,7 C 1,9 km/h (1 Bft)
14.03.2015 16:00 4,8 C 4,8 C 62 % 62 % 1020,9 hPa 0,0 l/m 1,8 km/h (1 Bft) O 90 -1,9 C 9,8 C 2,4 km/h (1 Bft)
14.03.2015 16:05 4,8 C 4,8 C 62 % 62 % 1020,9 hPa 0,0 l/m 1,8 km/h (1 Bft) N-NO 22 -1,9 C 9,5 C 2,1 km/h (1 Bft)
14.03.2015 16:10 4,8 C 4,8 C 62 % 62 % 1020,9 hPa 0,0 l/m 1,6 km/h (1 Bft) O-SO 112 -1,9 C 9,3 C 2,4 km/h (1 Bft)
14.03.2015 16:15 4,8 C 4,8 C 62 % 62 % 1020,9 hPa 0,0 l/m 2,3 km/h (1 Bft) N-NO 22 -1,9 C 8,8 C 4,0 km/h (1 Bft)
14.03.2015 16:20 4,8 C 4,8 C 62 % 62 % 1020,9 hPa 0,0 l/m 2,6 km/h (1 Bft) N-NO 22 -1,9 C 7,7 C 2,9 km/h (1 Bft)
14.03.2015 16:25 4,8 C 4,8 C 62 % 62 % 1020,9 hPa 0,0 l/m 2,3 km/h (1 Bft) NO 45 -1,9 C 7,2 C 1,6 km/h (1 Bft)
14.03.2015 16:30 4,8 C 4,8 C 62 % 62 % 1020,6 hPa 0,0 l/m 1,1 km/h (1 Bft) O-NO 67 -1,9 C 7,3 C 3,2 km/h (1 Bft)
14.03.2015 16:35 4,8 C 4,8 C 62 % 62 % 1020,6 hPa 0,0 l/m 1,0 km/h (0 Bft) O-NO 67 -1,9 C 7,2 C 1,8 km/h (1 Bft)
14.03.2015 16:40 4,8 C 4,8 C 62 % 62 % 1020,6 hPa 0,0 l/m 1,8 km/h (1 Bft) O-NO 67 -1,9 C 6,5 C 3,4 km/h (1 Bft)
14.03.2015 16:45 4,8 C 4,8 C 62 % 62 % 1020,6 hPa 0,0 l/m 2,7 km/h (1 Bft) NO 45 -1,9 C 6,0 C 5,8 km/h (2 Bft)
14.03.2015 16:50 4,8 C 4,8 C 62 % 62 % 1020,6 hPa 0,0 l/m 3,9 km/h (1 Bft) N-NO 22 -1,9 C 5,3 C 5,3 km/h (1 Bft)
14.03.2015 16:55 4,8 C 4,8 C 62 % 62 % 1020,6 hPa 0,0 l/m 3,4 km/h (1 Bft) NO 45 -1,9 C 5,2 C 2,9 km/h (1 Bft)
14.03.2015 17:00 4,7 C 4,8 C 62 % 62 % 1020,6 hPa 0,0 l/m 3,4 km/h (1 Bft) O-NO 67 -1,9 C 5,1 C 10,3 km/h (2 Bft)
14.03.2015 17:05 4,7 C 4,8 C 62 % 62 % 1020,6 hPa 0,0 l/m 4,2 km/h (1 Bft) NO 45 -1,9 C 4,4 C 6,6 km/h (2 Bft)
14.03.2015 17:10 4,5 C 4,8 C 62 % 62 % 1021,0 hPa 0,0 l/m 4,2 km/h (1 Bft) O 90 -1,9 C 4,1 C 4,3 km/h (1 Bft)
14.03.2015 17:15 4,5 C 4,8 C 62 % 62 % 1021,0 hPa 0,0 l/m 3,7 km/h (1 Bft) N-NO 22 -1,9 C 4,2 C 6,6 km/h (2 Bft)
14.03.2015 17:20 4,4 C 4,8 C 62 % 62 % 1021,0 hPa 0,0 l/m 4,7 km/h (1 Bft) O-NO 67 -1,9 C 3,5 C 5,6 km/h (1 Bft)
14.03.2015 17:25 4,3 C 4,8 C 62 % 62 % 1021,0 hPa 0,0 l/m 5,1 km/h (1 Bft) N-NO 22 -1,9 C 3,3 C 9,0 km/h (2 Bft)
14.03.2015 17:30 4,0 C 4,8 C 62 % 62 % 1021,1 hPa 0,0 l/m 4,3 km/h (1 Bft) O-NO 67 -1,9 C 3,4 C 6,4 km/h (2 Bft)
14.03.2015 17:35 4,0 C 4,8 C 62 % 62 % 1021,1 hPa 0,0 l/m 3,5 km/h (1 Bft) O-NO 67 -1,9 C 3,6 C 3,1 km/h (1 Bft)
14.03.2015 17:40 3,8 C 4,8 C 62 % 62 % 1021,1 hPa 0,0 l/m 2,9 km/h (1 Bft) O-NO 67 -1,9 C 3,7 C 2,1 km/h (1 Bft)
14.03.2015 17:45 3,8 C 4,8 C 62 % 62 % 1021,1 hPa 0,0 l/m 2,4 km/h (1 Bft) NO 45 -1,9 C 3,7 C 5,6 km/h (1 Bft)
14.03.2015 17:50 3,7 C 4,8 C 62 % 62 % 1021,4 hPa 0,0 l/m 2,9 km/h (1 Bft) NO 45 -1,9 C 3,6 C 6,3 km/h (2 Bft)
14.03.2015 17:55 3,6 C 4,8 C 62 % 62 % 1021,4 hPa 0,0 l/m 3,9 km/h (1 Bft) N-NO 22 -1,9 C 2,9 C 4,2 km/h (1 Bft)
14.03.2015 18:00 3,7 C 4,8 C 62 % 62 % 1021,4 hPa 0,0 l/m 3,7 km/h (1 Bft) N-NO 22 -1,9 C 2,9 C 0,0 km/h (0 Bft)
14.03.2015 18:05 3,4 C 4,8 C 62 % 62 % 1021,4 hPa 0,0 l/m 2,7 km/h (1 Bft) NO 45 -1,9 C 3,3 C 2,7 km/h (1 Bft)
14.03.2015 18:10 3,3 C 4,8 C 62 % 62 % 1021,5 hPa 0,0 l/m 1,6 km/h (1 Bft) N-NO 22 -1,9 C 3,1 C 3,7 km/h (1 Bft)
14.03.2015 18:15 3,3 C 4,8 C 62 % 62 % 1021,5 hPa 0,0 l/m 2,3 km/h (1 Bft) N-NO 22 -1,9 C 3,0 C 3,4 km/h (1 Bft)
14.03.2015 18:20 3,0 C 4,8 C 62 % 62 % 1021,5 hPa 0,0 l/m 2,1 km/h (1 Bft) O-NO 67 -1,9 C 2,9 C 1,6 km/h (1 Bft)
14.03.2015 18:25 3,0 C 4,8 C 62 % 62 % 1021,5 hPa 0,0 l/m 2,6 km/h (1 Bft) O-NO 67 -1,9 C 2,8 C 3,7 km/h (1 Bft)
14.03.2015 18:30 2,9 C 4,8 C 62 % 62 % 1021,8 hPa 0,0 l/m 2,3 km/h (1 Bft) NO 45 -1,9 C 2,6 C 3,7 km/h (1 Bft)
14.03.2015 18:35 2,7 C 4,8 C 62 % 62 % 1021,8 hPa 0,0 l/m 1,1 km/h (1 Bft) O-NO 67 -1,9 C 2,5 C 0,0 km/h (0 Bft)
14.03.2015 18:40 2,6 C 2,9 C 67 % 67 % 1021,8 hPa 0,0 l/m 0,5 km/h (0 Bft) O-NO 67 -2,6 C 2,3 C 2,3 km/h (1 Bft)
14.03.2015 18:45 2,6 C 2,9 C 67 % 67 % 1021,8 hPa 0,0 l/m 0,2 km/h (0 Bft) N-NW 337 -2,6 C 2,2 C 0,0 km/h (0 Bft)
14.03.2015 18:50 2,5 C 2,9 C 67 % 67 % 1022,0 hPa 0,0 l/m 0,3 km/h (0 Bft) NO 45 -2,6 C 2,2 C 0,0 km/h (0 Bft)
14.03.2015 18:55 2,4 C 2,9 C 67 % 67 % 1022,0 hPa 0,0 l/m 0,2 km/h (0 Bft) O-NO 67 -2,6 C 2,1 C 0,0 km/h (0 Bft)
14.03.2015 19:00 2,3 C 2,9 C 67 % 67 % 1022,0 hPa 0,0 l/m 0,0 km/h (0 Bft) N-NO 22 -2,6 C 2,0 C 0,0 km/h (0 Bft)
14.03.2015 19:05 2,3 C 2,9 C 67 % 67 % 1022,0 hPa 0,0 l/m 0,2 km/h (0 Bft) O-SO 112 -2,6 C 1,9 C 0,0 km/h (0 Bft)
14.03.2015 19:10 2,4 C 2,9 C 67 % 67 % 1022,1 hPa 0,0 l/m 0,6 km/h (0 Bft) NO 45 -2,6 C 1,9 C 2,3 km/h (1 Bft)
14.03.2015 19:15 2,3 C 2,9 C 67 % 67 % 1022,1 hPa 0,0 l/m 0,6 km/h (0 Bft) NO 45 -2,6 C 1,9 C 0,0 km/h (0 Bft)
14.03.2015 19:20 2,2 C 2,9 C 67 % 67 % 1022,1 hPa 0,0 l/m 0,2 km/h (0 Bft) NO 45 -2,6 C 1,8 C 0,0 km/h (0 Bft)
14.03.2015 19:25 2,1 C 2,9 C 67 % 67 % 1022,1 hPa 0,0 l/m 0,0 km/h (0 Bft) NO 45 -2,6 C 1,7 C 0,0 km/h (0 Bft)
14.03.2015 19:30 2,1 C 2,9 C 67 % 67 % 1022,4 hPa 0,0 l/m 0,5 km/h (0 Bft) NO 45 -2,6 C 1,6 C 1,9 km/h (1 Bft)
14.03.2015 19:35 2,0 C 2,9 C 67 % 67 % 1022,4 hPa 0,0 l/m 0,6 km/h (0 Bft) NO 45 -2,6 C 1,6 C 0,0 km/h (0 Bft)
14.03.2015 19:40 1,9 C 2,9 C 67 % 67 % 1022,4 hPa 0,0 l/m 0,3 km/h (0 Bft) O-NO 67 -2,6 C 1,5 C 0,0 km/h (0 Bft)
14.03.2015 19:45 2,0 C 2,9 C 67 % 67 % 1022,4 hPa 0,0 l/m 1,1 km/h (1 Bft) NO 45 -2,6 C 1,5 C 2,7 km/h (1 Bft)
14.03.2015 19:50 2,1 C 2,9 C 67 % 67 % 1022,6 hPa 0,0 l/m 2,6 km/h (1 Bft) O-NO 67 -2,6 C 1,4 C 5,6 km/h (1 Bft)
14.03.2015 19:55 2,1 C 2,9 C 67 % 67 % 1022,6 hPa 0,0 l/m 2,9 km/h (1 Bft) NO 45 -2,6 C 1,4 C 4,7 km/h (1 Bft)
14.03.2015 20:00 2,2 C 2,9 C 67 % 67 % 1022,6 hPa 0,0 l/m 4,3 km/h (1 Bft) N-NO 22 -2,6 C 0,6 C 4,7 km/h (1 Bft)
14.03.2015 20:05 2,1 C 2,9 C 67 % 67 % 1022,6 hPa 0,0 l/m 4,3 km/h (1 Bft) O-NO 67 -2,6 C 0,7 C 0,0 km/h (0 Bft)
14.03.2015 20:10 1,9 C 2,9 C 67 % 67 % 1022,6 hPa 0,0 l/m 2,4 km/h (1 Bft) O-NO 67 -2,6 C 1,5 C 1,8 km/h (1 Bft)
14.03.2015 20:15 1,9 C 2,1 C 72 % 72 % 1022,6 hPa 0,0 l/m 1,6 km/h (1 Bft) O-NO 67 -2,4 C 1,5 C 2,1 km/h (1 Bft)
14.03.2015 20:20 1,8 C 2,1 C 72 % 72 % 1022,6 hPa 0,0 l/m 1,8 km/h (1 Bft) O-NO 67 -2,4 C 1,5 C 0,0 km/h (0 Bft)
14.03.2015 20:25 1,9 C 2,0 C 73 % 73 % 1022,6 hPa 0,0 l/m 1,8 km/h (1 Bft) O-NO 67 -2,3 C 1,4 C 0,0 km/h (0 Bft)
14.03.2015 20:30 1,7 C 2,0 C 73 % 73 % 1022,7 hPa 0,0 l/m 0,6 km/h (0 Bft) O-NO 67 -2,3 C 1,3 C 1,8 km/h (1 Bft)
14.03.2015 20:35 1,7 C 2,0 C 73 % 73 % 1022,7 hPa 0,0 l/m 0,5 km/h (0 Bft) N-NO 22 -2,3 C 1,3 C 0,0 km/h (0 Bft)
14.03.2015 20:40 1,7 C 2,0 C 73 % 73 % 1022,7 hPa 0,0 l/m 1,1 km/h (1 Bft) NO 45 -2,3 C 1,2 C 4,0 km/h (1 Bft)
14.03.2015 20:45 1,7 C 2,0 C 73 % 73 % 1022,7 hPa 0,0 l/m 1,3 km/h (1 Bft) N-NO 22 -2,3 C 1,2 C 3,2 km/h (1 Bft)
14.03.2015 20:50 1,6 C 2,0 C 73 % 73 % 1022,7 hPa 0,0 l/m 1,4 km/h (1 Bft) O-SO 112 -2,3 C 1,2 C 0,0 km/h (0 Bft)
14.03.2015 20:55 1,5 C 2,0 C 73 % 73 % 1022,7 hPa 0,0 l/m 0,8 km/h (0 Bft) NO 45 -2,3 C 1,2 C 0,0 km/h (0 Bft)
14.03.2015 21:00 1,4 C 2,0 C 73 % 73 % 1022,7 hPa 0,0 l/m 0,2 km/h (0 Bft) O-SO 112 -2,3 C 1,0 C 2,4 km/h (1 Bft)
14.03.2015 21:05 1,4 C 1,5 C 74 % 74 % 1022,7 hPa 0,0 l/m 0,2 km/h (0 Bft) NO 45 -2,6 C 1,0 C 2,3 km/h (1 Bft)
14.03.2015 21:10 1,4 C 1,5 C 75 % 75 % 1022,5 hPa 0,0 l/m 0,5 km/h (0 Bft) NO 45 -2,4 C 0,9 C 2,7 km/h (1 Bft)
14.03.2015 21:15 1,5 C 1,5 C 75 % 75 % 1022,5 hPa 0,0 l/m 0,5 km/h (0 Bft) N-NO 22 -2,4 C 1,0 C 0,0 km/h (0 Bft)
14.03.2015 21:20 1,4 C 1,5 C 75 % 75 % 1022,5 hPa 0,0 l/m 0,3 km/h (0 Bft) O-NO 67 -2,4 C 0,9 C 0,0 km/h (0 Bft)
14.03.2015 21:25 1,4 C 1,5 C 75 % 75 % 1022,5 hPa 0,0 l/m 0,2 km/h (0 Bft) N-NO 22 -2,4 C 0,9 C 0,0 km/h (0 Bft)
14.03.2015 21:30 1,4 C 1,5 C 75 % 75 % 1022,5 hPa 0,0 l/m 0,6 km/h (0 Bft) NO 45 -2,4 C 0,9 C 0,0 km/h (0 Bft)
14.03.2015 21:35 1,3 C 1,4 C 75 % 75 % 1022,5 hPa 0,0 l/m 0,5 km/h (0 Bft) O-NO 67 -2,5 C 0,9 C 0,0 km/h (0 Bft)
14.03.2015 21:40 1,3 C 1,4 C 75 % 75 % 1022,5 hPa 0,0 l/m 0,0 km/h (0 Bft) NO 45 -2,5 C 0,8 C 0,0 km/h (0 Bft)
14.03.2015 21:45 1,3 C 1,4 C 75 % 75 % 1022,5 hPa 0,0 l/m 0,0 km/h (0 Bft) O-NO 67 -2,5 C 0,8 C 0,0 km/h (0 Bft)
14.03.2015 21:50 1,3 C 1,4 C 75 % 75 % 1022,7 hPa 0,0 l/m 0,2 km/h (0 Bft) O-NO 67 -2,5 C 0,8 C 0,0 km/h (0 Bft)
14.03.2015 21:55 1,3 C 1,4 C 76 % 76 % 1022,7 hPa 0,0 l/m 0,5 km/h (0 Bft) N-NO 22 -2,4 C 0,8 C 4,0 km/h (1 Bft)
14.03.2015 22:00 1,5 C 1,5 C 76 % 76 % 1022,7 hPa 0,0 l/m 2,3 km/h (1 Bft) NO 45 -2,3 C 0,9 C 6,1 km/h (2 Bft)
14.03.2015 22:05 1,5 C 1,5 C 76 % 76 % 1022,7 hPa 0,0 l/m 3,4 km/h (1 Bft) N-NO 22 -2,3 C 0,3 C 5,3 km/h (1 Bft)
14.03.2015 22:10 1,3 C 1,4 C 76 % 76 % 1022,4 hPa 0,0 l/m 3,5 km/h (1 Bft) N-NO 22 -2,4 C 0,2 C 3,1 km/h (1 Bft)
14.03.2015 22:15 1,3 C 1,4 C 76 % 76 % 1022,4 hPa 0,0 l/m 2,4 km/h (1 Bft) O-NO 67 -2,4 C 0,8 C 0,0 km/h (0 Bft)
14.03.2015 22:20 1,1 C 1,3 C 76 % 76 % 1022,4 hPa 0,0 l/m 1,0 km/h (0 Bft) NO 45 -2,5 C 0,6 C 0,0 km/h (0 Bft)
14.03.2015 22:25 1,1 C 1,2 C 77 % 77 % 1022,4 hPa 0,0 l/m 1,0 km/h (0 Bft) NO 45 -2,4 C 0,4 C 0,0 km/h (0 Bft)
14.03.2015 22:30 0,9 C 1,1 C 77 % 77 % 1022,4 hPa 0,0 l/m 0,6 km/h (0 Bft) O-NO 67 -2,5 C 0,0 C 0,0 km/h (0 Bft)
14.03.2015 22:35 0,8 C 1,0 C 77 % 77 % 1022,4 hPa 0,0 l/m 0,3 km/h (0 Bft) O-SO 112 -2,6 C -0,1 C 0,0 km/h (0 Bft)
14.03.2015 22:40 0,8 C 1,0 C 77 % 77 % 1022,4 hPa 0,0 l/m 0,2 km/h (0 Bft) SO 135 -2,6 C -0,3 C 0,0 km/h (0 Bft)
14.03.2015 22:45 0,8 C 1,0 C 77 % 77 % 1022,4 hPa 0,0 l/m 0,0 km/h (0 Bft) SO 135 -2,6 C -0,3 C 0,0 km/h (0 Bft)
14.03.2015 22:50 0,8 C 0,9 C 77 % 77 % 1022,2 hPa 0,0 l/m 0,0 km/h (0 Bft) O-NO 67 -2,7 C -0,3 C 0,0 km/h (0 Bft)
14.03.2015 22:55 0,8 C 0,9 C 77 % 77 % 1022,2 hPa 0,0 l/m 0,0 km/h (0 Bft) O-NO 67 -2,7 C -0,3 C 0,0 km/h (0 Bft)
14.03.2015 23:00 0,7 C 0,9 C 77 % 77 % 1022,2 hPa 0,0 l/m 0,0 km/h (0 Bft) NO 45 -2,7 C -0,3 C 0,0 km/h (0 Bft)
14.03.2015 23:05 0,6 C 0,9 C 77 % 77 % 1022,2 hPa 0,0 l/m 0,0 km/h (0 Bft) O-NO 67 -2,7 C -0,4 C 0,0 km/h (0 Bft)
14.03.2015 23:10 0,4 C 0,7 C 77 % 77 % 1022,1 hPa 0,0 l/m 0,0 km/h (0 Bft) O-NO 67 -2,9 C -0,6 C 0,0 km/h (0 Bft)
14.03.2015 23:15 0,3 C 0,6 C 77 % 77 % 1022,1 hPa 0,0 l/m 0,0 km/h (0 Bft) O-NO 67 -3,0 C -0,8 C 0,0 km/h (0 Bft)
14.03.2015 23:20 0,0 C 0,4 C 78 % 78 % 1022,1 hPa 0,0 l/m 0,0 km/h (0 Bft) O-SO 112 -3,0 C -1,2 C 0,0 km/h (0 Bft)
14.03.2015 23:25 0,0 C 0,4 C 78 % 78 % 1022,1 hPa 0,0 l/m 0,0 km/h (0 Bft) O 90 -3,0 C -1,3 C 0,0 km/h (0 Bft)
14.03.2015 23:30 -0,2 C 0,3 C 78 % 78 % 1022,1 hPa 0,0 l/m 0,0 km/h (0 Bft) SO 135 -3,1 C -1,5 C 0,0 km/h (0 Bft)
14.03.2015 23:35 -0,2 C 0,3 C 78 % 78 % 1022,1 hPa 0,0 l/m 0,0 km/h (0 Bft) SO 135 -3,1 C -1,6 C 0,0 km/h (0 Bft)
14.03.2015 23:40 -0,2 C 0,2 C 78 % 78 % 1022,1 hPa 0,0 l/m 0,0 km/h (0 Bft) SO 135 -3,2 C -1,7 C 0,0 km/h (0 Bft)
14.03.2015 23:45 -0,3 C 0,2 C 78 % 78 % 1022,1 hPa 0,0 l/m 0,0 km/h (0 Bft) SO 135 -3,2 C -1,8 C 0,0 km/h (0 Bft)
14.03.2015 23:50 -0,5 C 0,1 C 78 % 78 % 1022,0 hPa 0,0 l/m 0,0 km/h (0 Bft) S-SO 157 -3,3 C -2,0 C 0,0 km/h (0 Bft)
14.03.2015 23:54 -0,5 C 0,0 C 78 % 78 % 1022,0 hPa 0,0 l/m 0,2 km/h (0 Bft) O-NO 67 -3,4 C -2,0 C 0,0 km/h (0 Bft)
_ Min-Zeit 05:10 05:20 18:35 18:35 04:45 - 23:50 - - 05:20 04:50 23:54
Minimum _ -7,1 C -6,6 C 62 % 62 % 1019,8 hPa - 0,0 km/h (0 Bft) - - -9,8 C -8,4 C 0,0 km/h (0 Bft)
_ Max-Zeit 16:55 18:35 10:25 10:25 14:25 23:54 13:50 - - 15:00 14:40 15:50
Maximum _ 4,8 C 4,8 C 83 % 83 % 1023,6 hPa 0,0 l/m 5,5 km/h
O-NO (1 Bft)
- - -1,6 C 11,1 C 11,3 km/h
O-NO (2 Bft)
Durchschnitt _ -0,8 C -0,5 C 74 % 74 % 1021,4 hPa #0,0 l/m 1,3 km/h (1 Bft) N-NO - -4,7 C 0,3 C 1,9 km/h (1 Bft)